Time,TemperatureF,DewpointF,PressureIn,WindDirection,WindDirectionDegrees,WindSpeedMPH,WindSpeedGustMPH,Humidity,HourlyPrecipIn,Conditions,Clouds,dailyrainin,SoftwareType,DateUTC
2013-03-23 00:02:00,32.0,21.0,29.70,WSW,250,3.0,9.0,64,0.00,,,0.01,,2013-03-23 04:02:00,
2013-03-23 00:13:00,32.0,21.0,29.70,WSW,250,3.0,9.0,64,0.00,,,0.01,,2013-03-23 04:13:00,
2013-03-23 00:23:00,32.0,22.0,29.70,SSW,195,2.0,11.0,65,0.00,,,0.01,,2013-03-23 04:23:00,
2013-03-23 00:32:00,31.0,21.0,29.71,West,262,2.0,9.0,65,0.00,,,0.01,,2013-03-23 04:32:00,
2013-03-23 00:43:00,31.0,21.0,29.71,West,262,2.0,9.0,65,0.00,,,0.01,,2013-03-23 04:43:00,
2013-03-23 00:53:00,31.0,21.0,29.71,WNW,296,3.0,10.0,65,0.00,,,0.01,,2013-03-23 04:53:00,
2013-03-23 01:02:00,31.0,21.0,29.71,SW,215,3.0,9.0,67,0.00,,,0.01,,2013-03-23 05:02:00,
2013-03-23 01:12:00,31.0,21.0,29.71,SW,215,3.0,9.0,67,0.00,,,0.01,,2013-03-23 05:12:00,
2013-03-23 01:22:00,30.0,20.0,29.71,West,281,3.0,6.0,67,0.00,,,0.01,,2013-03-23 05:22:00,
2013-03-23 01:32:00,30.0,20.0,29.71,SW,218,3.0,9.0,67,0.00,,,0.01,,2013-03-23 05:32:00,
2013-03-23 01:42:00,30.0,20.0,29.71,SW,218,3.0,9.0,67,0.00,,,0.01,,2013-03-23 05:42:00,
2013-03-23 01:53:00,30.0,20.0,29.71,WNW,288,5.0,10.0,67,0.00,,,0.01,,2013-03-23 05:53:00,
2013-03-23 02:02:00,30.0,20.0,29.71,West,264,5.0,12.0,67,0.00,,,0.01,,2013-03-23 06:02:00,
2013-03-23 02:12:00,30.0,20.0,29.71,West,264,5.0,12.0,67,0.00,,,0.01,,2013-03-23 06:12:00,
2013-03-23 02:22:00,30.0,20.0,29.70,WNW,291,4.0,14.0,66,0.00,,,0.01,,2013-03-23 06:22:00,
2013-03-23 02:32:00,30.0,20.0,29.70,SW,236,8.0,16.0,65,0.00,,,0.01,,2013-03-23 06:32:00,
2013-03-23 02:42:00,30.0,20.0,29.70,SW,236,8.0,16.0,65,0.00,,,0.01,,2013-03-23 06:42:00,
2013-03-23 02:52:00,30.0,20.0,29.71,WSW,242,4.0,15.0,65,0.00,,,0.01,,2013-03-23 06:52:00,
2013-03-23 03:02:00,30.0,20.0,29.70,SW,225,5.0,11.0,67,0.00,,,0.01,,2013-03-23 07:02:00,
2013-03-23 03:12:00,30.0,20.0,29.70,SW,225,5.0,11.0,67,0.00,,,0.01,,2013-03-23 07:12:00,
2013-03-23 03:22:00,29.0,20.0,29.71,SW,233,4.0,8.0,69,0.00,,,0.01,,2013-03-23 07:22:00,
2013-03-23 03:32:00,29.0,20.0,29.70,West,259,4.0,12.0,69,0.00,,,0.01,,2013-03-23 07:32:00,
2013-03-23 03:42:00,29.0,20.0,29.70,West,259,4.0,12.0,69,0.00,,,0.01,,2013-03-23 07:42:00,
2013-03-23 03:52:00,29.0,20.0,29.70,WSW,257,3.0,9.0,70,0.00,,,0.01,,2013-03-23 07:52:00,
2013-03-23 04:02:00,29.0,20.0,29.70,West,263,5.0,13.0,70,0.00,,,0.01,,2013-03-23 08:02:00,
2013-03-23 04:13:00,29.0,20.0,29.70,West,263,5.0,13.0,70,0.00,,,0.01,,2013-03-23 08:13:00,
2013-03-23 04:22:00,29.0,21.0,29.70,West,259,5.0,9.0,71,0.00,,,0.01,,2013-03-23 08:22:00,
2013-03-23 04:32:00,29.0,21.0,29.70,SW,229,3.0,9.0,71,0.00,,,0.01,,2013-03-23 08:32:00,
2013-03-23 04:42:00,29.0,21.0,29.70,SW,229,3.0,9.0,71,0.00,,,0.01,,2013-03-23 08:42:00,
2013-03-23 04:53:00,28.0,20.0,29.69,SW,227,3.0,9.0,71,0.00,,,0.01,,2013-03-23 08:53:00,
2013-03-23 05:02:00,28.0,20.0,29.69,South,191,5.0,10.0,71,0.00,,,0.01,,2013-03-23 09:02:00,
2013-03-23 05:12:00,28.0,20.0,29.69,South,191,5.0,10.0,71,0.00,,,0.01,,2013-03-23 09:12:00,
2013-03-23 05:22:00,28.0,20.0,29.69,SSW,208,5.0,7.0,72,0.00,,,0.01,,2013-03-23 09:22:00,
2013-03-23 05:33:00,28.0,20.0,29.69,SSW,195,2.0,6.0,72,0.00,,,0.01,,2013-03-23 09:33:00,
2013-03-23 05:43:00,28.0,20.0,29.69,SSW,195,2.0,6.0,72,0.00,,,0.01,,2013-03-23 09:43:00,
2013-03-23 05:53:00,27.0,19.0,29.70,SSW,211,4.0,6.0,72,0.00,,,0.01,,2013-03-23 09:53:00,
2013-03-23 06:03:00,27.0,20.0,29.69,SSW,204,5.0,9.0,73,0.00,,,0.01,,2013-03-23 10:03:00,
2013-03-23 06:13:00,27.0,20.0,29.69,SSW,204,5.0,9.0,73,0.00,,,0.01,,2013-03-23 10:13:00,
2013-03-23 06:23:00,28.0,20.0,29.69,South,169,3.0,10.0,73,0.00,,,0.01,,2013-03-23 10:23:00,
2013-03-23 06:34:00,28.0,20.0,29.69,SW,229,5.0,12.0,73,0.00,,,0.01,,2013-03-23 10:34:00,
2013-03-23 06:43:00,28.0,20.0,29.69,SW,229,5.0,12.0,73,0.00,,,0.01,,2013-03-23 10:43:00,
2013-03-23 06:53:00,28.0,21.0,29.69,SW,217,5.0,9.0,74,0.00,,,0.01,,2013-03-23 10:53:00,
2013-03-23 07:03:00,28.0,21.0,29.68,WSW,253,5.0,9.0,75,0.00,,,0.01,,2013-03-23 11:03:00,
2013-03-23 07:12:00,28.0,21.0,29.68,WSW,253,5.0,9.0,75,0.00,,,0.01,,2013-03-23 11:12:00,
2013-03-23 07:22:00,28.0,21.0,29.68,SW,226,4.0,11.0,75,0.00,,,0.01,,2013-03-23 11:22:00,
2013-03-23 07:32:00,28.0,21.0,29.68,SSW,212,5.0,10.0,75,0.00,,,0.01,,2013-03-23 11:32:00,
2013-03-23 07:42:00,28.0,21.0,29.68,SSW,212,5.0,10.0,75,0.00,,,0.01,,2013-03-23 11:42:00,
2013-03-23 07:52:00,29.0,22.0,29.68,SW,225,6.0,11.0,74,0.00,,,0.01,,2013-03-23 11:52:00,
2013-03-23 08:02:00,30.0,22.0,29.68,SW,214,6.0,11.0,73,0.00,,,0.01,,2013-03-23 12:02:00,
2013-03-23 08:13:00,30.0,22.0,29.68,SW,214,6.0,11.0,73,0.00,,,0.01,,2013-03-23 12:13:00,
2013-03-23 08:22:00,31.0,23.0,29.68,SW,228,8.0,18.0,72,0.00,,,0.01,,2013-03-23 12:22:00,
2013-03-23 08:33:00,31.0,22.0,29.68,WSW,238,6.0,14.0,70,0.00,,,0.01,,2013-03-23 12:33:00,
2013-03-23 08:42:00,31.0,22.0,29.68,WSW,238,6.0,14.0,70,0.00,,,0.01,,2013-03-23 12:42:00,
2013-03-23 08:53:00,32.0,23.0,29.69,SW,229,7.0,19.0,69,0.00,,,0.01,,2013-03-23 12:53:00,
2013-03-23 09:03:00,33.0,24.0,29.69,SW,229,7.0,16.0,68,0.00,,,0.01,,2013-03-23 13:03:00,
2013-03-23 09:12:00,33.0,24.0,29.69,SW,229,7.0,16.0,68,0.00,,,0.01,,2013-03-23 13:12:00,
2013-03-23 09:23:00,34.0,23.0,29.69,WSW,250,9.0,18.0,65,0.00,,,0.01,,2013-03-23 13:23:00,
2013-03-23 09:33:00,34.0,23.0,29.68,SW,229,4.0,12.0,63,0.00,,,0.01,,2013-03-23 13:33:00,
2013-03-23 09:43:00,34.0,23.0,29.68,SW,229,4.0,12.0,63,0.00,,,0.01,,2013-03-23 13:43:00,
2013-03-23 09:53:00,35.0,23.0,29.67,West,278,6.0,17.0,61,0.00,,,0.01,,2013-03-23 13:53:00,
2013-03-23 10:03:00,36.0,23.0,29.67,SSW,211,8.0,20.0,58,0.00,,,0.01,,2013-03-23 14:03:00,
2013-03-23 10:12:00,36.0,23.0,29.67,SSW,211,8.0,20.0,58,0.00,,,0.01,,2013-03-23 14:12:00,
2013-03-23 10:23:00,36.0,22.0,29.67,West,259,9.0,20.0,56,0.00,,,0.01,,2013-03-23 14:23:00,
2013-03-23 10:32:00,37.0,22.0,29.67,NNE,13,7.0,13.0,55,0.00,,,0.01,,2013-03-23 14:32:00,
2013-03-23 10:43:00,37.0,22.0,29.67,NNE,13,7.0,13.0,55,0.00,,,0.01,,2013-03-23 14:43:00,
2013-03-23 10:52:00,37.0,22.0,29.67,West,267,9.0,22.0,54,0.00,,,0.01,,2013-03-23 14:52:00,
2013-03-23 11:03:00,37.0,21.0,29.66,SW,232,10.0,19.0,52,0.00,,,0.01,,2013-03-23 15:03:00,
2013-03-23 11:12:00,37.0,21.0,29.66,SW,232,10.0,19.0,52,0.00,,,0.01,,2013-03-23 15:12:00,
2013-03-23 11:22:00,37.0,21.0,29.66,WSW,252,6.0,16.0,52,0.00,,,0.01,,2013-03-23 15:22:00,
2013-03-23 11:33:00,37.0,21.0,29.65,West,281,9.0,17.0,51,0.00,,,0.01,,2013-03-23 15:33:00,
2013-03-23 11:43:00,37.0,21.0,29.65,West,281,9.0,17.0,51,0.00,,,0.01,,2013-03-23 15:43:00,
2013-03-23 11:53:00,38.0,21.0,29.65,West,281,11.0,26.0,49,0.00,,,0.01,,2013-03-23 15:53:00,
2013-03-23 12:03:00,38.0,19.0,29.65,West,269,11.0,23.0,46,0.00,,,0.01,,2013-03-23 16:03:00,
2013-03-23 12:13:00,38.0,19.0,29.65,West,269,11.0,23.0,46,0.00,,,0.01,,2013-03-23 16:13:00,
2013-03-23 12:23:00,39.0,20.0,29.64,NW,313,8.0,27.0,46,0.00,,,0.01,,2013-03-23 16:23:00,
2013-03-23 12:33:00,39.0,18.0,29.64,NW,306,9.0,19.0,43,0.00,,,0.01,,2013-03-23 16:33:00,
2013-03-23 12:43:00,39.0,18.0,29.64,NW,306,9.0,19.0,43,0.00,,,0.01,,2013-03-23 16:43:00,
2013-03-23 12:54:00,39.0,18.0,29.64,NNW,338,11.0,20.0,43,0.00,,,0.01,,2013-03-23 16:54:00,
2013-03-23 13:03:00,39.0,19.0,29.64,West,267,9.0,27.0,44,0.00,,,0.01,,2013-03-23 17:03:00,
2013-03-23 13:12:00,40.0,19.0,29.63,WSW,255,10.0,26.0,42,0.00,,,0.01,,2013-03-23 17:12:00,
2013-03-23 13:23:00,40.0,19.0,29.63,WSW,255,10.0,26.0,42,0.00,,,0.01,,2013-03-23 17:23:00,
2013-03-23 13:33:00,40.0,19.0,29.63,SSW,201,9.0,17.0,42,0.00,,,0.01,,2013-03-23 17:33:00,
2013-03-23 13:43:00,40.0,19.0,29.63,SSW,201,9.0,17.0,42,0.00,,,0.01,,2013-03-23 17:43:00,
2013-03-23 13:53:00,41.0,19.0,29.63,WSW,255,8.0,19.0,40,0.00,,,0.01,,2013-03-23 17:53:00,
2013-03-23 14:03:00,40.0,19.0,29.63,WSW,242,12.0,20.0,42,0.00,,,0.01,,2013-03-23 18:03:00,
2013-03-23 14:12:00,40.0,19.0,29.63,WSW,242,12.0,20.0,42,0.00,,,0.01,,2013-03-23 18:12:00,
2013-03-23 14:22:00,40.0,19.0,29.64,West,261,11.0,21.0,42,0.00,,,0.01,,2013-03-23 18:22:00,
2013-03-23 14:32:00,41.0,20.0,29.63,NNW,332,7.0,19.0,42,0.00,,,0.00,,2013-03-23 18:32:00,
2013-03-23 14:43:00,41.0,20.0,29.63,NNW,332,7.0,19.0,42,0.00,,,0.00,,2013-03-23 18:43:00,
2013-03-23 14:53:00,40.0,19.0,29.63,West,273,8.0,22.0,43,0.00,,,0.00,,2013-03-23 18:53:00,
2013-03-23 15:03:00,40.0,19.0,29.63,North,355,8.0,19.0,42,0.00,,,0.00,,2013-03-23 19:03:00,
2013-03-23 15:13:00,40.0,19.0,29.63,North,355,8.0,19.0,42,0.00,,,0.00,,2013-03-23 19:13:00,
2013-03-23 15:23:00,41.0,19.0,29.62,WNW,300,10.0,22.0,41,0.00,,,0.00,,2013-03-23 19:23:00,
2013-03-23 15:32:00,42.0,19.0,29.62,NW,305,14.0,24.0,40,0.00,,,0.00,,2013-03-23 19:32:00,
2013-03-23 15:42:00,42.0,19.0,29.62,NW,305,14.0,24.0,40,0.00,,,0.00,,2013-03-23 19:42:00,
2013-03-23 15:53:00,42.0,19.0,29.62,WSW,255,13.0,21.0,40,0.00,,,0.00,,2013-03-23 19:53:00,
2013-03-23 16:03:00,42.0,19.0,29.62,SW,235,12.0,25.0,40,0.00,,,0.00,,2013-03-23 20:03:00,
2013-03-23 16:13:00,42.0,19.0,29.62,SW,235,12.0,25.0,40,0.00,,,0.00,,2013-03-23 20:13:00,
2013-03-23 16:22:00,43.0,20.0,29.62,NW,310,14.0,25.0,40,0.00,,,0.00,,2013-03-23 20:22:00,
2013-03-23 16:32:00,43.0,20.0,29.62,West,280,10.0,31.0,39,0.00,,,0.00,,2013-03-23 20:32:00,
2013-03-23 16:42:00,43.0,20.0,29.62,West,280,10.0,31.0,39,0.00,,,0.00,,2013-03-23 20:42:00,
2013-03-23 16:53:00,43.0,20.0,29.62,NNW,337,9.0,17.0,39,0.00,,,0.00,,2013-03-23 20:53:00,
2013-03-23 17:02:00,42.0,18.0,29.63,WNW,287,9.0,25.0,38,0.00,,,0.00,,2013-03-23 21:02:00,
2013-03-23 17:12:00,42.0,18.0,29.63,WNW,287,9.0,25.0,38,0.00,,,0.00,,2013-03-23 21:12:00,
2013-03-23 17:22:00,42.0,18.0,29.63,SW,226,10.0,25.0,38,0.00,,,0.00,,2013-03-23 21:22:00,
2013-03-23 17:33:00,42.0,19.0,29.64,West,281,9.0,30.0,39,0.00,,,0.00,,2013-03-23 21:33:00,
2013-03-23 17:43:00,42.0,19.0,29.64,West,281,9.0,30.0,39,0.00,,,0.00,,2013-03-23 21:43:00,
2013-03-23 17:54:00,42.0,19.0,29.65,NNW,337,9.0,25.0,39,0.00,,,0.00,,2013-03-23 21:54:00,
2013-03-23 18:03:00,42.0,19.0,29.65,WNW,297,6.0,18.0,39,0.00,,,0.00,,2013-03-23 22:03:00,
2013-03-23 18:13:00,42.0,19.0,29.65,WNW,297,6.0,18.0,39,0.00,,,0.00,,2013-03-23 22:13:00,
2013-03-23 18:23:00,42.0,19.0,29.66,SW,236,7.0,24.0,39,0.00,,,0.00,,2013-03-23 22:23:00,
2013-03-23 18:33:00,41.0,19.0,29.67,NW,323,8.0,16.0,40,0.00,,,0.00,,2013-03-23 22:33:00,
2013-03-23 18:42:00,41.0,19.0,29.67,NW,323,8.0,16.0,40,0.00,,,0.00,,2013-03-23 22:42:00,
2013-03-23 18:53:00,41.0,19.0,29.67,NNE,16,4.0,20.0,41,0.00,,,0.00,,2013-03-23 22:53:00,
2013-03-23 19:02:00,40.0,19.0,29.69,NNW,343,5.0,17.0,42,0.00,,,0.00,,2013-03-23 23:02:00,
2013-03-23 19:13:00,40.0,19.0,29.69,NNW,343,5.0,17.0,42,0.00,,,0.00,,2013-03-23 23:13:00,
2013-03-23 19:23:00,39.0,19.0,29.69,WSW,256,5.0,15.0,44,0.00,,,0.00,,2013-03-23 23:23:00,
2013-03-23 19:33:00,39.0,19.0,29.71,NNW,335,8.0,17.0,44,0.00,,,0.00,,2013-03-23 23:33:00,
2013-03-23 19:43:00,39.0,19.0,29.71,NNW,335,8.0,17.0,44,0.00,,,0.00,,2013-03-23 23:43:00,
2013-03-23 19:52:00,39.0,19.0,29.71,WNW,302,8.0,21.0,45,0.00,,,0.00,,2013-03-23 23:52:00,
2013-03-23 20:02:00,38.0,19.0,29.72,NW,305,7.0,13.0,46,0.00,,,0.00,,2013-03-24 00:02:00,
2013-03-23 20:13:00,38.0,19.0,29.72,NW,305,7.0,13.0,46,0.00,,,0.00,,2013-03-24 00:13:00,
2013-03-23 20:23:00,38.0,20.0,29.73,NW,325,2.0,13.0,48,0.00,,,0.00,,2013-03-24 00:23:00,
2013-03-23 20:33:00,38.0,21.0,29.73,WSW,257,4.0,13.0,49,0.00,,,0.00,,2013-03-24 00:33:00,
2013-03-23 20:42:00,38.0,21.0,29.73,WSW,257,4.0,13.0,49,0.00,,,0.00,,2013-03-24 00:42:00,
2013-03-23 20:53:00,38.0,20.0,29.74,WSW,240,8.0,15.0,48,0.00,,,0.00,,2013-03-24 00:53:00,
2013-03-23 21:02:00,38.0,21.0,29.75,WNW,282,4.0,15.0,49,0.00,,,0.00,,2013-03-24 01:02:00,
2013-03-23 21:12:00,38.0,21.0,29.75,WNW,282,4.0,15.0,49,0.00,,,0.00,,2013-03-24 01:12:00,
2013-03-23 21:22:00,38.0,21.0,29.75,WNW,284,6.0,16.0,50,0.00,,,0.00,,2013-03-24 01:22:00,
2013-03-23 21:33:00,38.0,21.0,29.75,WNW,293,6.0,15.0,50,0.00,,,0.00,,2013-03-24 01:33:00,
2013-03-23 21:42:00,38.0,21.0,29.75,WNW,293,6.0,15.0,50,0.00,,,0.00,,2013-03-24 01:42:00,
2013-03-23 21:53:00,37.0,21.0,29.75,West,281,5.0,12.0,52,0.00,,,0.00,,2013-03-24 01:53:00,
2013-03-23 22:03:00,37.0,21.0,29.75,West,260,4.0,14.0,52,0.00,,,0.00,,2013-03-24 02:03:00,
2013-03-23 22:12:00,37.0,21.0,29.75,West,260,4.0,14.0,52,0.00,,,0.00,,2013-03-24 02:12:00,
2013-03-23 22:22:00,37.0,21.0,29.75,West,272,2.0,12.0,53,0.00,,,0.00,,2013-03-24 02:22:00,
2013-03-23 22:32:00,37.0,21.0,29.75,West,276,5.0,15.0,53,0.00,,,0.00,,2013-03-24 02:32:00,
2013-03-23 22:42:00,37.0,21.0,29.75,West,276,5.0,15.0,53,0.00,,,0.00,,2013-03-24 02:42:00,
2013-03-23 22:52:00,36.0,21.0,29.75,NW,315,4.0,9.0,54,0.00,,,0.00,,2013-03-24 02:52:00,
2013-03-23 23:02:00,36.0,21.0,29.75,West,273,6.0,18.0,55,0.00,,,0.00,,2013-03-24 03:02:00,
2013-03-23 23:12:00,36.0,21.0,29.75,West,273,6.0,18.0,55,0.00,,,0.00,,2013-03-24 03:12:00,
2013-03-23 23:23:00,36.0,22.0,29.75,West,259,4.0,12.0,56,0.00,,,0.00,,2013-03-24 03:23:00,
2013-03-23 23:33:00,36.0,22.0,29.75,NNW,327,5.0,12.0,56,0.00,,,0.00,,2013-03-24 03:33:00,
2013-03-23 23:42:00,36.0,22.0,29.75,NNW,327,5.0,12.0,56,0.00,,,0.00,,2013-03-24 03:42:00,
2013-03-23 23:53:00,35.0,21.0,29.75,SSW,195,2.0,9.0,57,0.00,,,0.00,,2013-03-24 03:53:00,